G8YN6G Weather Reports


Display with metric or nautical units.
time (UTC)temp
F
wind
direction
speed
MPH
gust
MPH
rain 1hr
in
rain 24hr
in
rain mn
in
humidity
%
barometer
mb
20260505041510 61 157 5.0 8.0 0.00 0.00 0.00 50 1004.4
20260505040509 61 170 5.0 7.0 0.00 0.00 0.00 51 1004.4
20260505035513 61 161 5.0 7.0 0.00 0.00 0.00 53 1004.4
20260505033612 60 163 3.0 5.0 0.00 0.00 0.00 53 1004.4
20260505032612 59 157 5.0 8.0 0.00 0.00 0.00 57 1004.4
20260505031614 58 177 1.0 4.0 0.00 0.00 0.00 56 1004.4
20260505030616 59 157 2.0 3.0 0.00 0.00 0.00 57 1004.4
20260505025612 59 135 0.0 2.0 0.00 0.00 0.00 56 1004.4
20260505024614 60 202 0.0 1.0 0.00 0.00 0.00 53 1004.4
20260505023712 60 157 0.0 0.0 0.00 0.00 0.00 53 1004.4
20260505022714 61 157 2.0 3.0 0.00 0.01 0.00 53 1004.7
20260505021812 61 180 0.0 0.0 0.00 0.01 0.00 50 1004.7
20260505020812 62 157 1.0 3.0 0.00 0.01 0.00 51 1005.0
20260505014912 61 157 0.0 0.0 0.00 0.02 0.00 50 1004.7
20260505013914 62 157 0.0 0.0 0.00 0.02 0.00 48 1004.7
20260505012913 63 157 0.0 0.0 0.00 0.02 0.00 48 1004.7
20260505010013 64 337 0.0 0.0 0.00 0.03 0.00 48 1004.7
20260505005111 64 337 0.0 0.0 0.00 0.03 0.00 46 1004.7
20260505004114 67 337 2.0 3.0 0.00 0.04 0.00 42 1004.7
20260505002213 69 142 0.0 0.0 0.00 0.04 0.00 40 1004.7
20260505001214 70 157 0.0 0.0 0.00 0.04 0.00 38 1004.7
20260504235214 72 157 0.0 0.0 0.00 0.04 0.00 36 1004.7
20260504234313 72 165 0.0 3.0 0.00 0.04 0.00 35 1004.4
20260504233312 72 225 1.0 3.0 0.00 0.04 0.00 33 1004.4
20260504232314 74 206 2.0 4.0 0.00 0.04 0.00 34 1004.4
20260504231313 73 188 2.0 4.0 0.00 0.04 0.00 32 1004.4
20260504230412 74 231 4.0 5.0 0.00 0.04 0.00 32 1004.0
20260504225415 75 187 1.0 3.0 0.00 0.04 0.00 33 1004.4
20260504224513 74 176 3.0 5.0 0.00 0.04 0.00 32 1004.4
20260504222512 75 179 3.0 7.0 0.00 0.04 0.00 34 1004.7
20260504221513 75 200 3.0 6.0 0.00 0.04 0.00 34 1004.4
20260504215531 77 230 1.0 5.0 0.00 0.04 0.00 34 1004.6
20260504214612 76 276 1.0 4.0 0.00 0.04 0.00 34 1004.7
20260504212614 76 231 2.0 3.0 0.00 0.04 0.00 34 1005.1
20260504211713 75 229 2.0 4.0 0.00 0.04 0.00 35 1005.1
20260504210812 75 202 1.0 3.0 0.00 0.04 0.00 35 1005.1
20260504205813 75 261 2.0 4.0 0.00 0.04 0.00 37 1005.1
20260504204812 74 270 2.0 3.0 0.00 0.04 0.00 37 1005.1
20260504203912 74 248 0.0 3.0 0.00 0.04 0.00 38 1005.4
20260504202914 73 275 3.0 5.0 0.00 0.04 0.00 37 1005.4
20260504201913 74 280 5.0 9.0 0.00 0.04 0.00 39 1005.4
20260504200915 74 344 0.0 1.0 0.00 0.04 0.00 38 1005.7
20260504194913 74 292 3.0 7.0 0.00 0.04 0.00 40 1005.4
20260504193913 74 230 3.0 7.0 0.00 0.04 0.00 40 1005.7
20260504193013 73 194 2.0 6.0 0.00 0.04 0.00 39 1006.1
20260504192012 72 239 1.0 3.0 0.00 0.04 0.00 39 1006.1
20260504191112 71 255 3.0 7.0 0.00 0.04 0.00 40 1006.1
20260504190113 71 272 1.0 3.0 0.00 0.04 0.00 40 1006.1
20260504185212 73 260 3.0 9.0 0.00 0.04 0.00 41 1006.4
20260504183313 72 199 0.0 4.0 0.00 0.04 0.00 42 1006.4
20260504182315 71 254 2.0 6.0 0.00 0.04 0.00 42 1006.5
20260504180314 70 258 3.0 6.0 0.00 0.04 0.00 43 1006.7
20260504175312 70 280 3.0 6.0 0.00 0.04 0.00 43 1007.0
20260504174315 70 245 3.0 4.0 0.00 0.04 0.00 43 1007.1
20260504173315 69 229 0.0 1.0 0.00 0.04 0.00 42 1007.1
20260504172312 69 270 1.0 4.0 0.00 0.04 0.00 43 1007.1
20260504171313 68 295 4.0 6.0 0.00 0.04 0.00 44 1007.1
20260504160314 66 269 4.0 12.0 0.00 0.04 0.00 45 1007.8
20260504150511 64 167 8.0 14.0 0.00 0.04 0.00 48 1007.8
20260504140514 59 203 7.0 13.0 0.00 0.04 0.00 50 1008.5
20260504110714 52 169 4.0 8.0 0.00 0.04 0.00 60 1008.5
20260504081814 53 171 4.0 6.0 0.00 0.04 0.00 58 1008.8
20260504080814 52 201 5.0 9.0 0.00 0.04 0.00 57 1008.8
20260504045212 48 156 2.0 3.0 0.00 0.04 0.00 91 1009.8
20260504043314 47 157 2.0 5.0 0.00 0.04 0.00 90 1010.5
20260504042412 48 155 2.0 4.0 0.00 0.04 0.00 91 1010.2